Location: Brantford
(43.1330°N, 80.2670°W)
Time: 05:22:22
(UTC-05:00)

Tiros 1 despin weight - All Passes

Search period start: 12 November 2019 00:00
Search period end: 22 November 2019 00:00
Orbit: 594 x 642 km, 48.2° (Epoch: 11 November)

Date Brightness Start Highest point End Pass type
(mag) Time Alt. Az. Time Alt. Az. Time Alt. Az.
12 Nov - 15:32:08 10° SSW 15:36:13 38° SE 15:40:23 10° ENE daylight
12 Nov - 17:13:13 10° W 17:17:39 64° NNW 17:22:10 10° ENE daylight
12 Nov - 18:55:23 10° WNW 18:59:42 43° N 19:04:04 10° ENE visible
12 Nov - 20:37:08 10° WNW 20:41:40 72° NNE 20:46:17 10° ESE visible
12 Nov - 22:18:57 10° WNW 22:23:03 32° SW 22:27:10 10° SSE night (unlit)
13 Nov - 14:09:22 10° SSE 14:11:46 14° SE 14:14:10 10° E daylight
13 Nov - 15:48:16 10° SW 15:52:40 67° SSE 15:57:07 10° ENE daylight
13 Nov - 17:30:02 10° W 17:34:23 49° N 17:38:48 10° ENE visible
13 Nov - 19:12:06 10° WNW 19:16:29 47° N 19:20:55 10° E visible
13 Nov - 20:53:43 10° WNW 20:58:17 76° SSW 21:02:53 10° ESE visible
13 Nov - 22:36:13 10° W 22:39:19 18° SW 22:42:26 10° S night (unlit)
14 Nov - 14:24:16 10° SSW 14:28:00 27° SE 14:31:45 10° E daylight
14 Nov - 16:04:47 10° WSW 16:09:14 79° NNW 16:13:44 10° ENE daylight
14 Nov - 17:46:53 10° WNW 17:51:10 43° N 17:55:31 10° ENE visible
14 Nov - 19:28:45 10° WNW 19:33:13 60° NNE 19:37:45 10° E visible
14 Nov - 21:10:25 10° WNW 21:14:45 45° SW 21:19:09 10° SE visible
15 Nov - 14:40:06 10° SW 14:44:21 48° SE 14:48:39 10° ENE daylight
15 Nov - 16:21:32 10° W 16:25:54 56° NNW 16:30:20 10° ENE daylight
15 Nov - 18:03:40 10° WNW 18:07:58 44° N 18:12:20 10° ENE visible
15 Nov - 19:45:21 10° WNW 19:49:53 84° NNE 19:54:29 10° ESE visible
15 Nov - 21:27:22 10° W 21:31:06 25° SW 21:34:53 10° SSE visible
16 Nov - 13:16:41 10° S 13:19:47 19° SE 13:22:55 10° E daylight
16 Nov - 14:56:25 10° WSW 15:00:50 82° SSE 15:05:19 10° ENE daylight
16 Nov - 16:38:22 10° W 16:42:40 46° N 16:47:01 10° ENE daylight
16 Nov - 18:20:22 10° WNW 18:24:45 51° NNE 18:29:11 10° E visible
16 Nov - 20:01:57 10° WNW 20:06:26 61° SSW 20:10:57 10° SE visible
16 Nov - 21:45:06 10° WSW 21:47:20 13° SW 21:49:34 10° SSW night (unlit)
17 Nov - 13:32:05 10° SSW 13:36:04 34° SE 13:40:07 10° ENE daylight
17 Nov - 15:13:03 10° WSW 15:17:27 67° NNW 15:21:55 10° ENE daylight
17 Nov - 16:55:12 10° WNW 16:59:27 43° N 17:03:46 10° ENE daylight
17 Nov - 18:36:59 10° WNW 18:41:27 68° NNE 18:46:00 10° ESE visible
17 Nov - 20:18:44 10° WNW 20:22:51 35° SW 20:27:01 10° SSE visible
18 Nov - 12:09:40 10° SSE 12:11:39 13° SE 12:13:37 10° ESE daylight
18 Nov - 13:48:09 10° SW 13:52:30 61° SSE 13:56:53 10° ENE daylight
18 Nov - 15:29:51 10° W 15:34:10 50° NNW 15:38:32 10° ENE daylight
18 Nov - 17:11:56 10° WNW 17:16:15 46° N 17:20:37 10° E daylight
18 Nov - 18:53:34 10° WNW 18:58:04 81° SSW 19:02:37 10° ESE visible
18 Nov - 20:35:54 10° W 20:39:09 19° SW 20:42:26 10° S visible
19 Nov - 12:24:17 10° SSW 12:27:51 24° SE 12:31:27 10° E daylight
19 Nov - 14:04:37 10° WSW 14:09:03 84° NNW 14:13:31 10° ENE daylight
19 Nov - 15:46:42 10° WNW 15:50:56 43° N 15:55:15 10° ENE daylight
19 Nov - 17:28:36 10° WNW 17:33:00 57° NNE 17:37:27 10° E visible
19 Nov - 19:10:13 10° WNW 19:14:33 48° SW 19:18:57 10° SE visible
20 Nov - 12:40:01 10° SW 12:44:12 44° SE 12:48:24 10° ENE daylight
20 Nov - 14:21:20 10° W 14:25:42 58° NNW 14:30:06 10° ENE daylight
20 Nov - 16:03:29 10° WNW 16:07:44 43° N 16:12:03 10° ENE daylight
20 Nov - 17:45:11 10° WNW 17:49:40 79° NNE 17:54:12 10° ESE visible
20 Nov - 19:27:07 10° W 19:30:56 27° SW 19:34:47 10° SSE visible
21 Nov - 11:16:48 10° S 11:19:41 17° SE 11:22:32 10° E daylight
21 Nov - 12:56:16 10° WSW 13:00:40 76° SSE 13:05:06 10° ENE daylight
21 Nov - 14:38:10 10° W 14:42:26 46° N 14:46:45 10° ENE daylight
21 Nov - 16:20:12 10° WNW 16:24:31 49° N 16:28:54 10° E daylight
21 Nov - 18:01:47 10° WNW 18:06:14 66° SSW 18:10:43 10° SE visible
21 Nov - 19:44:40 10° W 19:47:11 15° SW 19:49:42 10° SSW visible
